| time (UTC) | temp C | wind direction | speed KPH | gust KPH | rain 1hr cm | rain 24hr cm | rain mn cm | humidity % | barometer mb |
| 20260507162004 | 18 | 151 | 4.8 | 16.1 | 0.00 | 0.00 | 0.00 | 73 | 1008.1 |
| 20260507161514 | 18 | 139 | 1.6 | 9.7 | 0.00 | 0.00 | 0.00 | 70 | 1008.2 |
| 20260507161044 | 18 | 115 | 3.2 | 8.0 | 0.00 | 0.00 | 0.00 | 71 | 1008.2 |
| 20260507160544 | 18 | 132 | 8.0 | 16.1 | 0.00 | 0.00 | 0.00 | 71 | 1008.2 |
| 20260507160139 | 18 | 119 | 9.7 | 14.5 | 0.00 | 0.00 | 0.00 | 72 | 1008.2 |
| 20260507155705 | 18 | 157 | 6.4 | 16.1 | 0.00 | 0.00 | 0.00 | 71 | 1008.2 |
| 20260507155224 | 18 | 152 | 6.4 | 16.1 | 0.00 | 0.00 | 0.00 | 71 | 1008.5 |
| 20260507154803 | 18 | 114 | 11.3 | 16.1 | 0.00 | 0.00 | 0.00 | 70 | 1008.3 |
| 20260507154309 | 18 | 127 | 3.2 | 12.9 | 0.00 | 0.00 | 0.00 | 70 | 1008.5 |
| 20260507153839 | 18 | 107 | 9.7 | 14.5 | 0.00 | 0.00 | 0.00 | 69 | 1008.5 |
| 20260507153414 | 18 | 147 | 11.3 | 14.5 | 0.00 | 0.00 | 0.00 | 68 | 1008.5 |
| 20260507152954 | 18 | 105 | 3.2 | 16.1 | 0.00 | 0.00 | 0.00 | 69 | 1008.6 |
| 20260507152554 | 18 | 112 | 6.4 | 16.1 | 0.00 | 0.00 | 0.00 | 69 | 1008.6 |
| 20260507152139 | 18 | 122 | 3.2 | 9.7 | 0.00 | 0.00 | 0.00 | 67 | 1008.6 |
| 20260507151644 | 18 | 80 | 6.4 | 14.5 | 0.00 | 0.00 | 0.00 | 70 | 1008.7 |
| 20260507151244 | 18 | 100 | 8.0 | 16.1 | 0.00 | 0.00 | 0.00 | 71 | 1008.5 |
| 20260507150824 | 18 | 119 | 8.0 | 12.9 | 0.00 | 0.00 | 0.00 | 67 | 1008.6 |
| 20260507150409 | 18 | 111 | 9.7 | 9.7 | 0.00 | 0.00 | 0.00 | 67 | 1008.6 |
| 20260507145924 | 18 | 116 | 9.7 | 14.5 | 0.00 | 0.00 | 0.00 | 68 | 1008.7 |
| 20260507145451 | 17 | 139 | 8.0 | 14.5 | 0.00 | 0.00 | 0.00 | 71 | 1008.7 |
| 20260507145024 | 18 | 145 | 12.9 | 17.7 | 0.00 | 0.00 | 0.00 | 71 | 1008.6 |
| 20260507144554 | 18 | 107 | 9.7 | 12.9 | 0.00 | 0.00 | 0.00 | 71 | 1008.7 |
| 20260507144131 | 18 | 98 | 4.8 | 16.1 | 0.00 | 0.00 | 0.00 | 72 | 1008.8 |
| 20260507143654 | 18 | 131 | 8.0 | 14.5 | 0.00 | 0.00 | 0.00 | 73 | 1008.8 |
| 20260507143219 | 18 | 98 | 4.8 | 14.5 | 0.00 | 0.00 | 0.00 | 73 | 1009.0 |
| 20260507142729 | 18 | 121 | 8.0 | 9.7 | 0.00 | 0.00 | 0.00 | 72 | 1008.9 |
| 20260507142234 | 18 | 123 | 11.3 | 16.1 | 0.00 | 0.00 | 0.00 | 75 | 1009.0 |
| 20260507141754 | 18 | 153 | 8.0 | 14.5 | 0.00 | 0.00 | 0.00 | 75 | 1008.9 |
| 20260507141324 | 17 | 93 | 9.7 | 14.5 | 0.00 | 0.00 | 0.00 | 76 | 1009.0 |
| 20260507140909 | 18 | 145 | 11.3 | 17.7 | 0.00 | 0.00 | 0.00 | 74 | 1009.1 |
| 20260507140431 | 18 | 137 | 4.8 | 9.7 | 0.00 | 0.00 | 0.00 | 75 | 1009.1 |
| 20260507135939 | 18 | 128 | 8.0 | 16.1 | 0.00 | 0.00 | 0.00 | 74 | 1009.1 |
| 20260507135439 | 18 | 144 | 3.2 | 12.9 | 0.00 | 0.00 | 0.00 | 73 | 1009.3 |
| 20260507135033 | 18 | 130 | 6.4 | 9.7 | 0.00 | 0.00 | 0.00 | 73 | 1009.1 |
| 20260507134549 | 19 | 125 | 8.0 | 12.9 | 0.00 | 0.00 | 0.00 | 71 | 1009.4 |
| 20260507134054 | 18 | 63 | 9.7 | 16.1 | 0.00 | 0.00 | 0.00 | 73 | 1009.5 |
| 20260507133126 | 18 | 144 | 6.4 | 16.1 | 0.00 | 0.00 | 0.00 | 61 | 1009.5 |
| 20260507132704 | 17 | 138 | 11.3 | 16.1 | 0.00 | 0.00 | 0.00 | 62 | 1009.6 |
| 20260507132244 | 17 | 141 | 6.4 | 9.7 | 0.00 | 0.00 | 0.00 | 75 | 1009.7 |
| 20260507131824 | 18 | 136 | 8.0 | 14.5 | 0.00 | 0.00 | 0.00 | 75 | 1009.8 |
| 20260507131334 | 19 | 101 | 4.8 | 14.5 | 0.00 | 0.00 | 0.00 | 73 | 1009.5 |
| 20260507130909 | 20 | 63 | 6.4 | 9.7 | 0.00 | 0.00 | 0.00 | 66 | 1009.6 |
| 20260507130447 | 19 | 164 | 6.4 | 9.7 | 0.00 | 0.00 | 0.00 | 67 | 1009.7 |
| 20260507125949 | 18 | 164 | 6.4 | 17.7 | 0.00 | 0.00 | 0.00 | 70 | 1009.7 |
| 20260507125534 | 18 | 152 | 6.4 | 14.5 | 0.00 | 0.00 | 0.00 | 71 | 1009.5 |
| 20260507125109 | 18 | 112 | 4.8 | 16.1 | 0.00 | 0.00 | 0.00 | 72 | 1009.5 |
| 20260507124624 | 18 | 145 | 9.7 | 14.5 | 0.00 | 0.00 | 0.00 | 73 | 1009.8 |
| 20260507124149 | 18 | 153 | 4.8 | 9.7 | 0.00 | 0.00 | 0.00 | 73 | 1009.8 |
| 20260507123659 | 19 | 140 | 4.8 | 12.9 | 0.00 | 0.00 | 0.00 | 73 | 1009.8 |
| 20260507123204 | 19 | 215 | 4.8 | 16.1 | 0.00 | 0.00 | 0.00 | 73 | 1010.0 |
| 20260507122729 | 18 | 134 | 3.2 | 9.7 | 0.00 | 0.00 | 0.00 | 75 | 1010.1 |
| 20260507122324 | 18 | 155 | 11.3 | 24.1 | 0.00 | 0.00 | 0.00 | 76 | 1010.0 |
| 20260507121824 | 20 | 127 | 4.8 | 8.0 | 0.00 | 0.00 | 0.00 | 71 | 1010.0 |
| 20260507121408 | 19 | 140 | 3.2 | 8.0 | 0.00 | 0.00 | 0.00 | 72 | 1009.9 |
| 20260507120919 | 18 | 164 | 9.7 | 19.3 | 0.00 | 0.00 | 0.00 | 74 | 1009.9 |
| 20260507120454 | 18 | 172 | 9.7 | 22.5 | 0.00 | 0.00 | 0.00 | 74 | 1010.1 |
| 20260507120017 | 18 | 147 | 16.1 | 20.9 | 0.00 | 0.00 | 0.00 | 72 | 1010.0 |
| 20260507115524 | 18 | 116 | 4.8 | 17.7 | 0.00 | 0.00 | 0.00 | 72 | 1010.0 |
| 20260507115047 | 18 | 176 | 12.9 | 19.3 | 0.00 | 0.00 | 0.00 | 71 | 1010.0 |
| 20260507114619 | 18 | 152 | 8.0 | 19.3 | 0.00 | 0.00 | 0.00 | 73 | 1009.9 |
| 20260507114119 | 18 | 132 | 8.0 | 16.1 | 0.00 | 0.00 | 0.00 | 71 | 1009.8 |
| 20260507113619 | 18 | 151 | 19.3 | 24.1 | 0.00 | 0.00 | 0.00 | 72 | 1009.7 |
| 20260507113155 | 18 | 150 | 4.8 | 17.7 | 0.00 | 0.00 | 0.00 | 72 | 1009.9 |
| 20260507112704 | 18 | 126 | 8.0 | 22.5 | 0.00 | 0.00 | 0.00 | 72 | 1009.8 |
| 20260507112254 | 19 | 181 | 9.7 | 19.3 | 0.00 | 0.00 | 0.00 | 71 | 1009.7 |
| 20260507111809 | 19 | 169 | 6.4 | 16.1 | 0.00 | 0.00 | 0.00 | 72 | 1009.7 |
| 20260507111309 | 19 | 144 | 16.1 | 17.7 | 0.00 | 0.00 | 0.00 | 73 | 1009.7 |
| 20260507110819 | 19 | 139 | 16.1 | 22.5 | 0.00 | 0.00 | 0.00 | 72 | 1009.7 |
| 20260507110414 | 19 | 151 | 11.3 | 17.7 | 0.00 | 0.00 | 0.00 | 74 | 1009.8 |
| 20260507105949 | 19 | 132 | 11.3 | 20.9 | 0.00 | 0.00 | 0.00 | 73 | 1009.9 |
| 20260507105539 | 19 | 164 | 9.7 | 17.7 | 0.00 | 0.00 | 0.00 | 73 | 1009.8 |
| 20260507105039 | 18 | 181 | 6.4 | 17.7 | 0.00 | 0.00 | 0.00 | 76 | 1009.8 |
| 20260507104614 | 18 | 130 | 20.9 | 24.1 | 0.00 | 0.00 | 0.00 | 78 | 1009.8 |
| 20260507104149 | 18 | 149 | 17.7 | 22.5 | 0.00 | 0.00 | 0.00 | 80 | 1009.9 |
| 20260507103649 | 18 | 133 | 8.0 | 19.3 | 0.00 | 0.00 | 0.00 | 84 | 1009.5 |
| 20260507103214 | 18 | 171 | 12.9 | 19.3 | 0.00 | 0.00 | 0.00 | 84 | 1009.9 |
| 20260507102804 | 18 | 117 | 3.2 | 12.9 | 0.00 | 0.00 | 0.00 | 86 | 1009.7 |
| 20260507102359 | 18 | 102 | 14.5 | 17.7 | 0.00 | 0.00 | 0.00 | 85 | 1009.8 |
| 20260507101924 | 18 | 138 | 9.7 | 16.1 | 0.00 | 0.00 | 0.00 | 85 | 1009.7 |
| 20260507101429 | 18 | 109 | 8.0 | 12.9 | 0.00 | 0.00 | 0.00 | 84 | 1009.5 |
| 20260507101014 | 18 | 95 | 8.0 | 12.9 | 0.00 | 0.00 | 0.00 | 83 | 1009.6 |
| 20260507100517 | 17 | 134 | 1.6 | 16.1 | 0.00 | 0.00 | 0.00 | 86 | 1009.6 |
| 20260507100054 | 18 | 85 | 11.3 | 16.1 | 0.00 | 0.00 | 0.00 | 82 | 1009.8 |
| 20260507095648 | 18 | 71 | 6.4 | 9.7 | 0.00 | 0.00 | 0.00 | 82 | 1009.6 |
| 20260507095234 | 18 | 119 | 6.4 | 9.7 | 0.00 | 0.00 | 0.00 | 82 | 1009.6 |
| 20260507094754 | 17 | 163 | 4.8 | 12.9 | 0.00 | 0.00 | 0.00 | 84 | 1009.8 |
| 20260507094352 | 17 | 52 | 1.6 | 16.1 | 0.00 | 0.00 | 0.00 | 84 | 1009.7 |
| 20260507093919 | 18 | 154 | 8.0 | 14.5 | 0.00 | 0.00 | 0.00 | 82 | 1009.5 |
| 20260507093419 | 18 | 92 | 6.4 | 9.7 | 0.00 | 0.00 | 0.00 | 78 | 1009.8 |
| 20260507092919 | 17 | 109 | 9.7 | 12.9 | 0.00 | 0.00 | 0.00 | 80 | 1009.6 |
| 20260507092004 | 18 | 133 | 4.8 | 6.4 | 0.00 | 0.00 | 0.00 | 80 | 1009.7 |
| 20260507091534 | 18 | 108 | 4.8 | 6.4 | 0.00 | 0.00 | 0.00 | 81 | 1009.6 |
| 20260507091049 | 17 | 139 | 3.2 | 4.8 | 0.00 | 0.00 | 0.00 | 82 | 1009.8 |
| 20260507090619 | 18 | 147 | 4.8 | 6.4 | 0.00 | 0.00 | 0.00 | 81 | 1009.6 |
| 20260507090129 | 18 | 151 | 4.8 | 8.0 | 0.00 | 0.00 | 0.00 | 81 | 1009.7 |
| 20260507085646 | 17 | 139 | 0.0 | 8.0 | 0.00 | 0.00 | 0.00 | 82 | 1009.5 |
| 20260507085239 | 17 | 102 | 4.8 | 9.7 | 0.00 | 0.00 | 0.00 | 82 | 1009.6 |
| 20260507084759 | 17 | 128 | 3.2 | 4.8 | 0.00 | 0.00 | 0.00 | 83 | 1009.9 |
| 20260507084259 | 17 | 137 | 6.4 | 8.0 | 0.00 | 0.00 | 0.00 | 82 | 1009.6 |
| 20260507083826 | 17 | 203 | 6.4 | 8.0 | 0.00 | 0.00 | 0.00 | 83 | 1009.5 |
| 20260507083349 | 17 | 159 | 4.8 | 8.0 | 0.00 | 0.00 | 0.00 | 83 | 1009.5 |
| 20260507082914 | 17 | 202 | 4.8 | 8.0 | 0.00 | 0.00 | 0.00 | 85 | 1009.7 |
| 20260507082514 | 17 | 176 | 4.8 | 9.7 | 0.00 | 0.00 | 0.00 | 85 | 1009.5 |
| 20260507082054 | 17 | 142 | 6.4 | 8.0 | 0.00 | 0.00 | 0.00 | 84 | 1009.7 |
| 20260507081644 | 18 | 142 | 3.2 | 4.8 | 0.00 | 0.00 | 0.00 | 84 | 1009.6 |
| 20260507081214 | 17 | 102 | 0.0 | 4.8 | 0.00 | 0.00 | 0.00 | 84 | 1009.8 |
| 20260507080744 | 17 | 129 | 4.8 | 8.0 | 0.00 | 0.00 | 0.00 | 83 | 1009.6 |
| 20260507080259 | 17 | 109 | 0.0 | 4.8 | 0.00 | 0.00 | 0.00 | 83 | 1009.8 |
| 20260507075814 | 18 | 101 | 1.6 | 3.2 | 0.00 | 0.00 | 0.00 | 82 | 1009.5 |
| 20260507075355 | 17 | 135 | 3.2 | 4.8 | 0.00 | 0.00 | 0.00 | 84 | 1009.5 |
| 20260507074909 | 17 | 140 | 4.8 | 9.7 | 0.00 | 0.00 | 0.00 | 84 | 1009.5 |
| 20260507074439 | 17 | 131 | 6.4 | 8.0 | 0.00 | 0.00 | 0.00 | 84 | 1009.5 |
| 20260507074029 | 17 | 108 | 3.2 | 8.0 | 0.00 | 0.00 | 0.00 | 83 | 1009.5 |
| 20260507073539 | 17 | 107 | 1.6 | 4.8 | 0.00 | 0.00 | 0.00 | 83 | 1009.5 |
| 20260507073114 | 17 | 132 | 1.6 | 4.8 | 0.00 | 0.00 | 0.00 | 83 | 1009.2 |
| 20260507072647 | 17 | 101 | 0.0 | 4.8 | 0.00 | 0.00 | 0.00 | 83 | 1009.4 |
| 20260507072224 | 17 | 135 | 3.2 | 4.8 | 0.00 | 0.00 | 0.00 | 83 | 1009.5 |
| 20260507071749 | 17 | 113 | 3.2 | 3.2 | 0.00 | 0.00 | 0.00 | 83 | 1009.5 |
| 20260507071314 | 17 | 108 | 1.6 | 4.8 | 0.00 | 0.00 | 0.00 | 83 | 1009.5 |
| 20260507070854 | 17 | 109 | 0.0 | 1.6 | 0.00 | 0.00 | 0.00 | 83 | 1009.5 |
| 20260507070419 | 16 | 106 | 0.0 | 4.8 | 0.00 | 0.00 | 0.00 | 83 | 1009.5 |
| 20260507070005 | 17 | 124 | 3.2 | 4.8 | 0.00 | 0.00 | 0.00 | 83 | 1009.5 |
| 20260507065514 | 17 | 138 | 0.0 | 0.0 | 0.00 | 0.00 | 0.00 | 83 | 1009.4 |
| 20260507065054 | 17 | 156 | 1.6 | 3.2 | 0.00 | 0.00 | 0.00 | 82 | 1009.5 |
| 20260507064614 | 17 | 103 | 0.0 | 3.2 | 0.00 | 0.00 | 0.00 | 82 | 1009.5 |
| 20260507064119 | 17 | 157 | 3.2 | 3.2 | 0.00 | 0.00 | 0.00 | 82 | 1009.5 |
| 20260507063624 | 17 | 81 | 0.0 | 1.6 | 0.00 | 0.00 | 0.00 | 82 | 1009.3 |
| 20260507063155 | 16 | 96 | 0.0 | 0.0 | 0.00 | 0.00 | 0.00 | 82 | 1009.3 |
| 20260507062754 | 16 | 90 | 0.0 | 1.6 | 0.00 | 0.00 | 0.00 | 82 | 1009.2 |
| 20260507062259 | 16 | 104 | 0.0 | 1.6 | 0.00 | 0.00 | 0.00 | 82 | 1009.2 |
| 20260507061829 | 16 | 76 | 0.0 | 3.2 | 0.00 | 0.00 | 0.00 | 82 | 1009.1 |
| 20260507061359 | 16 | 112 | 0.0 | 1.6 | 0.00 | 0.00 | 0.00 | 82 | 1009.0 |
| 20260507060939 | 16 | 133 | 3.2 | 4.8 | 0.00 | 0.00 | 0.00 | 82 | 1008.8 |
| 20260507060520 | 16 | 82 | 0.0 | 0.0 | 0.00 | 0.00 | 0.00 | 82 | 1008.9 |
| 20260507060104 | 16 | 87 | 0.0 | 0.0 | 0.00 | 0.00 | 0.00 | 82 | 1008.6 |
| 20260507055649 | 16 | 120 | 0.0 | 1.6 | 0.00 | 0.00 | 0.00 | 82 | 1008.7 |
| 20260507055244 | 16 | 96 | 0.0 | 0.0 | 0.00 | 0.00 | 0.00 | 82 | 1008.6 |
| 20260507054834 | 16 | 92 | 0.0 | 3.2 | 0.00 | 0.00 | 0.00 | 82 | 1008.5 |
| 20260507054354 | 16 | 91 | 0.0 | 0.0 | 0.00 | 0.00 | 0.00 | 82 | 1008.6 |
| 20260507053914 | 16 | 97 | 0.0 | 1.6 | 0.00 | 0.00 | 0.00 | 82 | 1008.2 |
| 20260507053459 | 16 | 85 | 0.0 | 0.0 | 0.00 | 0.00 | 0.00 | 82 | 1008.2 |
| 20260507053044 | 16 | 97 | 0.0 | 0.0 | 0.00 | 0.00 | 0.00 | 82 | 1008.2 |
| 20260507052629 | 16 | 88 | 0.0 | 0.0 | 0.00 | 0.00 | 0.00 | 82 | 1008.2 |
| 20260507052154 | 16 | 101 | 0.0 | 0.0 | 0.00 | 0.00 | 0.00 | 82 | 1008.5 |
| 20260507051747 | 16 | 93 | 0.0 | 0.0 | 0.00 | 0.00 | 0.00 | 82 | 1008.2 |
| 20260507050804 | 16 | 115 | 0.0 | 0.0 | 0.00 | 0.00 | 0.00 | 82 | 1008.3 |
| 20260507050343 | 16 | 90 | 0.0 | 0.0 | 0.00 | 0.00 | 0.00 | 82 | 1008.3 |
| 20260507045854 | 16 | 89 | 0.0 | 1.6 | 0.00 | 0.00 | 0.00 | 82 | 1008.0 |
| 20260507045359 | 16 | 92 | 0.0 | 0.0 | 0.00 | 0.00 | 0.00 | 82 | 1008.1 |
| 20260507044929 | 16 | 100 | 0.0 | 0.0 | 0.00 | 0.00 | 0.00 | 82 | 1008.1 |
| 20260507044444 | 16 | 81 | 0.0 | 0.0 | 0.00 | 0.00 | 0.00 | 83 | 1008.2 |
| 20260507044044 | 16 | 82 | 0.0 | 0.0 | 0.00 | 0.00 | 0.00 | 83 | 1008.1 |
| 20260507043604 | 16 | 97 | 0.0 | 0.0 | 0.00 | 0.00 | 0.00 | 83 | 1008.0 |
| 20260507043143 | 16 | 87 | 0.0 | 1.6 | 0.00 | 0.00 | 0.00 | 83 | 1008.0 |
| 20260507042714 | 16 | 92 | 0.0 | 0.0 | 0.00 | 0.00 | 0.00 | 84 | 1008.0 |
| 20260507042244 | 16 | 104 | 0.0 | 0.0 | 0.00 | 0.00 | 0.00 | 84 | 1008.0 |
| 20260507041748 | 16 | 105 | 0.0 | 1.6 | 0.00 | 0.00 | 0.00 | 84 | 1008.1 |
| 20260507041259 | 16 | 90 | 0.0 | 1.6 | 0.00 | 0.00 | 0.00 | 84 | 1008.2 |
| 20260507040809 | 16 | 101 | 0.0 | 1.6 | 0.00 | 0.00 | 0.00 | 84 | 1008.0 |
| 20260507040324 | 16 | 91 | 0.0 | 1.6 | 0.00 | 0.00 | 0.00 | 84 | 1008.0 |
| 20260507035834 | 16 | 83 | 1.6 | 1.6 | 0.00 | 0.00 | 0.00 | 84 | 1008.2 |
| 20260507035414 | 16 | 69 | 0.0 | 0.0 | 0.00 | 0.00 | 0.00 | 85 | 1008.1 |
| 20260507034929 | 16 | 80 | 0.0 | 1.6 | 0.00 | 0.00 | 0.00 | 85 | 1007.9 |
| 20260507034529 | 16 | 94 | 0.0 | 0.0 | 0.00 | 0.00 | 0.00 | 85 | 1007.9 |
| 20260507034114 | 16 | 73 | 0.0 | 3.2 | 0.00 | 0.00 | 0.00 | 85 | 1007.9 |
| 20260507033659 | 16 | 63 | 1.6 | 3.2 | 0.00 | 0.00 | 0.00 | 85 | 1007.9 |
| 20260507033219 | 16 | 87 | 0.0 | 0.0 | 0.00 | 0.00 | 0.00 | 86 | 1008.1 |
| 20260507032814 | 16 | 82 | 0.0 | 0.0 | 0.00 | 0.00 | 0.00 | 86 | 1008.1 |
| 20260507032354 | 16 | 71 | 0.0 | 1.6 | 0.00 | 0.00 | 0.00 | 86 | 1008.1 |
| 20260507031914 | 16 | 97 | 0.0 | 1.6 | 0.00 | 0.00 | 0.00 | 86 | 1008.1 |
| 20260507031504 | 16 | 83 | 0.0 | 1.6 | 0.00 | 0.00 | 0.00 | 86 | 1007.9 |
| 20260507031054 | 16 | 81 | 0.0 | 0.0 | 0.00 | 0.00 | 0.00 | 87 | 1008.2 |
| 20260507030559 | 16 | 64 | 1.6 | 3.2 | 0.00 | 0.00 | 0.00 | 87 | 1008.1 |
| 20260507030159 | 16 | 77 | 0.0 | 3.2 | 0.00 | 0.00 | 0.00 | 87 | 1008.0 |
| 20260507025704 | 15 | 73 | 1.6 | 3.2 | 0.00 | 0.00 | 0.00 | 87 | 1008.5 |
| 20260507025234 | 15 | 92 | 0.0 | 1.6 | 0.00 | 0.00 | 0.00 | 87 | 1008.2 |
| 20260507024824 | 15 | 74 | 0.0 | 1.6 | 0.00 | 0.00 | 0.00 | 87 | 1008.2 |
| 20260507024419 | 15 | 54 | 1.6 | 3.2 | 0.00 | 0.00 | 0.00 | 87 | 1008.1 |
| 20260507023939 | 15 | 69 | 1.6 | 3.2 | 0.00 | 0.00 | 0.00 | 87 | 1008.3 |
| 20260507023444 | 15 | 90 | 0.0 | 3.2 | 0.00 | 0.00 | 0.00 | 87 | 1008.1 |
| 20260507023033 | 15 | 76 | 0.0 | 3.2 | 0.00 | 0.00 | 0.00 | 87 | 1008.2 |
| 20260507022604 | 15 | 90 | 0.0 | 3.2 | 0.00 | 0.00 | 0.00 | 87 | 1008.1 |
| 20260507022139 | 16 | 77 | 0.0 | 1.6 | 0.00 | 0.00 | 0.00 | 87 | 1007.9 |
| 20260507021739 | 15 | 99 | 0.0 | 3.2 | 0.00 | 0.00 | 0.00 | 87 | 1007.9 |
| 20260507021249 | 16 | 76 | 0.0 | 1.6 | 0.00 | 0.00 | 0.00 | 87 | 1008.1 |
| 20260507020753 | 16 | 42 | 1.6 | 3.2 | 0.00 | 0.00 | 0.00 | 87 | 1008.1 |
| 20260507020324 | 16 | 44 | 1.6 | 3.2 | 0.00 | 0.00 | 0.00 | 87 | 1008.1 |
| 20260507015844 | 16 | 62 | 1.6 | 3.2 | 0.00 | 0.00 | 0.00 | 86 | 1008.2 |
| 20260507015419 | 16 | 66 | 1.6 | 3.2 | 0.00 | 0.00 | 0.00 | 86 | 1008.1 |
| 20260507015004 | 16 | 62 | 0.0 | 0.0 | 0.00 | 0.00 | 0.00 | 87 | 1008.0 |
| 20260507014554 | 16 | 79 | 0.0 | 1.6 | 0.00 | 0.00 | 0.00 | 87 | 1008.2 |
| 20260507014146 | 16 | 95 | 0.0 | 3.2 | 0.00 | 0.00 | 0.00 | 87 | 1008.2 |
| 20260507013714 | 16 | 76 | 1.6 | 3.2 | 0.00 | 0.00 | 0.00 | 87 | 1008.0 |
| 20260507013249 | 16 | 85 | 1.6 | 3.2 | 0.00 | 0.00 | 0.00 | 87 | 1008.5 |
| 20260507012754 | 16 | 45 | 1.6 | 4.8 | 0.00 | 0.00 | 0.00 | 87 | 1008.3 |
| 20260507012325 | 16 | 89 | 0.0 | 3.2 | 0.00 | 0.00 | 0.00 | 88 | 1008.2 |
| 20260507011854 | 15 | 60 | 1.6 | 3.2 | 0.00 | 0.00 | 0.00 | 88 | 1008.2 |
| 20260507011454 | 15 | 27 | 3.2 | 4.8 | 0.00 | 0.00 | 0.00 | 88 | 1008.3 |
| 20260507011039 | 16 | 95 | 0.0 | 1.6 | 0.00 | 0.00 | 0.00 | 88 | 1008.5 |
| 20260507010634 | 16 | 69 | 0.0 | 4.8 | 0.00 | 0.00 | 0.00 | 88 | 1008.3 |
| 20260507010139 | 16 | 53 | 1.6 | 3.2 | 0.00 | 0.00 | 0.00 | 89 | 1008.6 |
| 20260507005850 | 15 | 59 | 0.0 | 3.2 | 0.00 | 0.00 | 0.00 | 89 | 1008.6 |
| 20260507005420 | 15 | 79 | 0.0 | 3.2 | 0.00 | 0.00 | 0.00 | 89 | 1008.6 |
| 20260507004953 | 15 | 66 | 0.0 | 3.2 | 0.00 | 0.00 | 0.00 | 89 | 1008.6 |
| 20260507004540 | 15 | 54 | 1.6 | 4.8 | 0.00 | 0.00 | 0.00 | 89 | 1008.6 |
| 20260507004106 | 15 | 97 | 0.0 | 3.2 | 0.00 | 0.00 | 0.00 | 89 | 1008.7 |
| 20260507003613 | 15 | 30 | 1.6 | 3.2 | 0.00 | 0.00 | 0.00 | 90 | 1008.8 |
| 20260507003120 | 16 | 85 | 1.6 | 4.8 | 0.00 | 0.00 | 0.00 | 90 | 1008.7 |
| 20260507002620 | 16 | 55 | 0.0 | 3.2 | 0.00 | 0.00 | 0.00 | 90 | 1008.8 |
| 20260507002208 | 16 | 38 | 1.6 | 3.2 | 0.00 | 0.00 | 0.00 | 90 | 1008.9 |
| 20260507001745 | 16 | 81 | 0.0 | 0.0 | 0.00 | 0.00 | 0.00 | 91 | 1008.9 |
| 20260507001253 | 16 | 80 | 1.6 | 3.2 | 0.00 | 0.00 | 0.00 | 91 | 1009.0 |
| 20260507000823 | 15 | 86 | 0.0 | 0.0 | 0.00 | 0.00 | 0.00 | 91 | 1008.8 |
| 20260507000350 | 15 | 86 | 0.0 | 0.0 | 0.00 | 0.00 | 0.00 | 91 | 1008.8 |
| 20260506235943 | 16 | 97 | 0.0 | 0.0 | 0.00 | 0.00 | 0.00 | 91 | 1008.9 |
| 20260506235525 | 16 | 83 | 0.0 | 0.0 | 0.00 | 0.00 | 0.00 | 91 | 1009.0 |
| 20260506235120 | 16 | 81 | 0.0 | 0.0 | 0.00 | 0.00 | 0.00 | 91 | 1008.9 |
| 20260506234640 | 16 | 84 | 0.0 | 0.0 | 0.00 | 0.00 | 0.00 | 92 | 1009.0 |
| 20260506234150 | 16 | 45 | 1.6 | 3.2 | 0.00 | 0.00 | 0.00 | 92 | 1009.0 |
| 20260506233650 | 16 | 83 | 0.0 | 1.6 | 0.00 | 0.00 | 0.00 | 92 | 1009.1 |
| 20260506233220 | 16 | 98 | 0.0 | 1.6 | 0.00 | 0.00 | 0.00 | 92 | 1009.2 |
| 20260506232725 | 16 | 100 | 1.6 | 3.2 | 0.00 | 0.00 | 0.00 | 92 | 1009.2 |
| 20260506232245 | 16 | 72 | 1.6 | 6.4 | 0.00 | 0.00 | 0.00 | 92 | 1009.2 |
| 20260506231753 | 16 | 71 | 0.0 | 1.6 | 0.00 | 0.00 | 0.00 | 92 | 1009.3 |
| 20260506231333 | 16 | 96 | 0.0 | 3.2 | 0.00 | 0.00 | 0.00 | 93 | 1009.3 |
| 20260506230850 | 16 | 59 | 1.6 | 3.2 | 0.00 | 0.00 | 0.00 | 93 | 1009.3 |
| 20260506230443 | 16 | 79 | 0.0 | 3.2 | 0.00 | 0.00 | 0.00 | 93 | 1009.3 |
| 20260506230010 | 16 | 47 | 3.2 | 4.8 | 0.00 | 0.00 | 0.00 | 93 | 1009.3 |
| 20260506225525 | 16 | 62 | 3.2 | 3.2 | 0.00 | 0.00 | 0.00 | 93 | 1009.3 |
| 20260506225038 | 16 | 68 | 0.0 | 3.2 | 0.00 | 0.00 | 0.00 | 93 | 1009.4 |
| 20260506224633 | 16 | 87 | 0.0 | 3.2 | 0.00 | 0.00 | 0.00 | 93 | 1009.3 |
| 20260506224225 | 16 | 11 | 0.0 | 4.8 | 0.00 | 0.00 | 0.00 | 93 | 1009.2 |
| 20260506223725 | 16 | 72 | 1.6 | 4.8 | 0.00 | 0.00 | 0.00 | 93 | 1009.2 |
| 20260506223305 | 16 | 84 | 1.6 | 3.2 | 0.00 | 0.00 | 0.00 | 92 | 1009.3 |
| 20260506222830 | 16 | 84 | 1.6 | 3.2 | 0.00 | 0.00 | 0.00 | 92 | 1009.1 |
| 20260506222331 | 16 | 83 | 0.0 | 1.6 | 0.00 | 0.00 | 0.00 | 92 | 1009.3 |
| 20260506221850 | 16 | 94 | 1.6 | 6.4 | 0.00 | 0.00 | 0.00 | 92 | 1009.2 |
| 20260506221416 | 16 | 96 | 0.0 | 3.2 | 0.00 | 0.00 | 0.00 | 92 | 1009.2 |
| 20260506221005 | 16 | 96 | 0.0 | 3.2 | 0.00 | 0.00 | 0.00 | 92 | 1009.0 |
| 20260506220550 | 16 | 86 | 0.0 | 3.2 | 0.00 | 0.00 | 0.00 | 92 | 1009.2 |
| 20260506220115 | 16 | 79 | 0.0 | 1.6 | 0.00 | 0.00 | 0.00 | 92 | 1009.2 |
| 20260506215638 | 16 | 108 | 0.0 | 3.2 | 0.00 | 0.00 | 0.00 | 92 | 1009.2 |
| 20260506215215 | 16 | 83 | 0.0 | 3.2 | 0.00 | 0.00 | 0.00 | 92 | 1009.1 |
| 20260506214743 | 16 | 85 | 0.0 | 3.2 | 0.00 | 0.00 | 0.00 | 92 | 1009.1 |
| 20260506214338 | 16 | 86 | 0.0 | 4.8 | 0.00 | 0.00 | 0.00 | 91 | 1008.9 |
| 20260506213908 | 16 | 60 | 0.0 | 3.2 | 0.00 | 0.00 | 0.00 | 91 | 1009.1 |
| 20260506213500 | 16 | 108 | 1.6 | 3.2 | 0.00 | 0.00 | 0.00 | 91 | 1009.0 |
| 20260506213015 | 16 | 88 | 0.0 | 3.2 | 0.00 | 0.00 | 0.00 | 91 | 1009.2 |
| 20260506212545 | 17 | 83 | 1.6 | 4.8 | 0.00 | 0.00 | 0.00 | 91 | 1009.2 |
| 20260506212125 | 17 | 97 | 0.0 | 3.2 | 0.00 | 0.00 | 0.00 | 91 | 1009.0 |
| 20260506211705 | 16 | 96 | 1.6 | 3.2 | 0.00 | 0.00 | 0.00 | 91 | 1009.1 |
| 20260506211205 | 16 | 92 | 1.6 | 1.6 | 0.00 | 0.00 | 0.00 | 90 | 1009.0 |
| 20260506210710 | 16 | 99 | 0.0 | 1.6 | 0.00 | 0.00 | 0.00 | 90 | 1008.9 |
| 20260506210255 | 16 | 101 | 0.0 | 0.0 | 0.00 | 0.00 | 0.00 | 90 | 1009.0 |
| 20260506205830 | 16 | 103 | 0.0 | 0.0 | 0.00 | 0.00 | 0.00 | 90 | 1008.7 |
| 20260506205338 | 16 | 133 | 3.2 | 4.8 | 0.00 | 0.00 | 0.00 | 90 | 1008.7 |
| 20260506204858 | 16 | 124 | 4.8 | 8.0 | 0.00 | 0.00 | 0.00 | 90 | 1008.8 |
| 20260506204425 | 16 | 99 | 0.0 | 6.4 | 0.00 | 0.00 | 0.00 | 91 | 1008.8 |
| 20260506203950 | 17 | 105 | 1.6 | 4.8 | 0.00 | 0.00 | 0.00 | 91 | 1008.7 |
| 20260506203550 | 17 | 103 | 0.0 | 4.8 | 0.00 | 0.00 | 0.00 | 91 | 1008.6 |
| 20260506203105 | 17 | 106 | 0.0 | 1.6 | 0.00 | 0.00 | 0.00 | 91 | 1008.7 |
| 20260506202635 | 17 | 103 | 0.0 | 3.2 | 0.00 | 0.00 | 0.00 | 91 | 1008.3 |
| 20260506202210 | 17 | 93 | 1.6 | 3.2 | 0.00 | 0.00 | 0.00 | 91 | 1008.5 |
| 20260506201758 | 17 | 100 | 0.0 | 3.2 | 0.00 | 0.00 | 0.00 | 91 | 1008.3 |
| 20260506201345 | 17 | 140 | 3.2 | 6.4 | 0.00 | 0.00 | 0.00 | 91 | 1008.2 |
| 20260506200945 | 17 | 114 | 0.0 | 4.8 | 0.00 | 0.00 | 0.00 | 91 | 1008.1 |
| 20260506200525 | 17 | 106 | 1.6 | 3.2 | 0.00 | 0.00 | 0.00 | 90 | 1008.0 |
| 20260506200100 | 17 | 129 | 3.2 | 6.4 | 0.00 | 0.00 | 0.00 | 90 | 1008.0 |
| 20260506195648 | 17 | 101 | 0.0 | 3.2 | 0.00 | 0.00 | 0.00 | 90 | 1007.8 |
| 20260506195245 | 17 | 137 | 4.8 | 8.0 | 0.00 | 0.00 | 0.00 | 90 | 1007.9 |
| 20260506194825 | 17 | 123 | 3.2 | 4.8 | 0.00 | 0.00 | 0.00 | 89 | 1007.8 |
| 20260506194330 | 17 | 129 | 3.2 | 4.8 | 0.00 | 0.00 | 0.00 | 89 | 1007.6 |
| 20260506193915 | 17 | 128 | 0.0 | 3.2 | 0.00 | 0.00 | 0.00 | 89 | 1007.6 |
| 20260506193455 | 17 | 163 | 6.4 | 8.0 | 0.00 | 0.00 | 0.00 | 89 | 1007.5 |
| 20260506193048 | 17 | 105 | 3.2 | 8.0 | 0.00 | 0.00 | 0.00 | 88 | 1007.5 |
| 20260506192550 | 17 | 115 | 3.2 | 4.8 | 0.00 | 0.00 | 0.00 | 88 | 1007.4 |
| 20260506192100 | 17 | 108 | 0.0 | 4.8 | 0.00 | 0.00 | 0.00 | 87 | 1007.4 |
| 20260506191610 | 17 | 110 | 0.0 | 4.8 | 0.00 | 0.00 | 0.00 | 87 | 1007.4 |
| 20260506191120 | 17 | 135 | 3.2 | 4.8 | 0.00 | 0.00 | 0.00 | 86 | 1007.4 |
| 20260506190645 | 17 | 108 | 0.0 | 4.8 | 0.00 | 0.00 | 0.00 | 86 | 1007.4 |
| 20260506190215 | 17 | 97 | 0.0 | 3.2 | 0.00 | 0.00 | 0.00 | 86 | 1007.2 |
| 20260506185755 | 17 | 78 | 1.6 | 6.4 | 0.00 | 0.00 | 0.00 | 85 | 1007.2 |
| 20260506185258 | 17 | 102 | 1.6 | 6.4 | 0.00 | 0.00 | 0.00 | 84 | 1007.2 |
| 20260506184848 | 18 | 84 | 3.2 | 6.4 | 0.00 | 0.00 | 0.00 | 83 | 1007.0 |
| 20260506184405 | 18 | 118 | 1.6 | 8.0 | 0.00 | 0.00 | 0.00 | 81 | 1007.0 |
| 20260506183925 | 18 | 89 | 4.8 | 8.0 | 0.00 | 0.00 | 0.00 | 78 | 1006.8 |
| 20260506183500 | 18 | 109 | 3.2 | 4.8 | 0.00 | 0.00 | 0.00 | 76 | 1007.0 |
| 20260506183025 | 18 | 77 | 3.2 | 6.4 | 0.00 | 0.00 | 0.00 | 75 | 1006.8 |
| 20260506182619 | 18 | 88 | 1.6 | 6.4 | 0.00 | 0.00 | 0.00 | 75 | 1006.9 |
| 20260506182125 | 18 | 120 | 3.2 | 4.8 | 0.00 | 0.00 | 0.00 | 76 | 1006.8 |
| 20260506181635 | 18 | 115 | 6.4 | 8.0 | 0.00 | 0.00 | 0.00 | 77 | 1006.7 |
| 20260506181157 | 18 | 88 | 8.0 | 9.7 | 0.00 | 0.00 | 0.00 | 77 | 1006.6 |
| 20260506180725 | 19 | 125 | 4.8 | 12.9 | 0.00 | 0.00 | 0.00 | 75 | 1006.7 |
| 20260506180245 | 21 | 23 | 4.8 | 9.7 | 0.00 | 0.00 | 0.00 | 70 | 1006.5 |
| 20260506175830 | 22 | 83 | 1.6 | 3.2 | 0.00 | 0.00 | 0.00 | 57 | 1006.7 |
| 20260506175328 | 21 | 108 | 0.0 | 4.8 | 0.00 | 0.00 | 0.00 | 55 | 1006.5 |
| 20260506174850 | 22 | 108 | 1.6 | 6.4 | 0.00 | 0.00 | 0.00 | 52 | 1006.7 |
| 20260506174407 | 22 | 103 | 0.0 | 4.8 | 0.00 | 0.00 | 0.00 | 53 | 1006.7 |
| 20260506173940 | 22 | 111 | 1.6 | 4.8 | 0.00 | 0.00 | 0.00 | 49 | 1006.8 |
| 20260506173450 | 22 | 130 | 3.2 | 6.4 | 0.00 | 0.00 | 0.00 | 48 | 1006.7 |
| 20260506172954 | 22 | 151 | 9.7 | 14.5 | 0.00 | 0.00 | 0.00 | 47 | 1006.6 |
| 20260506172525 | 22 | 146 | 4.8 | 8.0 | 0.00 | 0.00 | 0.00 | 52 | 1006.5 |
| 20260506172030 | 22 | 118 | 4.8 | 8.0 | 0.00 | 0.00 | 0.00 | 54 | 1006.6 |
| 20260506171610 | 22 | 116 | 3.2 | 6.4 | 0.00 | 0.00 | 0.00 | 54 | 1006.7 |
| 20260506171145 | 22 | 103 | 0.0 | 6.4 | 0.00 | 0.00 | 0.00 | 47 | 1006.8 |
| 20260506170718 | 22 | 154 | 1.6 | 4.8 | 0.00 | 0.00 | 0.00 | 51 | 1006.6 |
| 20260506170305 | 22 | 145 | 3.2 | 9.7 | 0.00 | 0.00 | 0.00 | 46 | 1007.0 |
| 20260506165830 | 22 | 143 | 11.3 | 14.5 | 0.00 | 0.00 | 0.00 | 42 | 1006.8 |
| 20260506165425 | 22 | 109 | 0.0 | 8.0 | 0.00 | 0.00 | 0.00 | 39 | 1006.9 |
| 20260506164945 | 22 | 171 | 6.4 | 9.7 | 0.00 | 0.00 | 0.00 | 37 | 1006.8 |
| 20260506164500 | 22 | 169 | 9.7 | 14.5 | 0.00 | 0.00 | 0.00 | 36 | 1007.1 |
| 20260506164027 | 22 | 134 | 6.4 | 14.5 | 0.00 | 0.00 | 0.00 | 37 | 1006.7 |
| 20260506163605 | 23 | 152 | 11.3 | 14.5 | 0.00 | 0.00 | 0.00 | 38 | 1006.8 |
| 20260506163145 | 23 | 110 | 9.7 | 12.9 | 0.00 | 0.00 | 0.00 | 40 | 1006.8 |
| 20260506162710 | 23 | 135 | 3.2 | 6.4 | 0.00 | 0.00 | 0.00 | 36 | 1006.7 |